Regional Weather Roundup
Issued by NWS

Home | Current Version | Previous Version | Text Only | Print | Product List | Glossary Off
Versions: 1 2 3 4 5 6 7 8 9 10 11 12 13 14 15 16 17 18 19 20 21 22 23 24 25 26 27 28 29 30 31 32 33 34 35 36 37 38 39 40 41 42 43 44 45 46 47 48 49 50

000
ASUS45 KTFX 151804
RWRMT
MONTANA HOURLY WEATHER ROUNDUP
NATIONAL WEATHER SERVICE GREAT FALLS MT
1204 PM MDT MON SEP 15 2014

NOTE: "FAIR" INDICATES FEW OR NO CLOUDS BELOW 12000 FEET WITH NO
SIGNIFICANT WEATHER AND/OR OBSTRUCTIONS TO VISIBILITY.

* THESE STATIONS ARE NOT UNDER NWS QUALITY CONTROL. THEY DO NOT
   REPORT WEATHER SUCH AS PRECIPITATION OR FOG.

MTZ001>007-043-151900-
WEST OF THE DIVIDE
CITY           SKY/WX    TMP DP  RH WIND       PRES   REMARKS
KALISPELL      SUNNY     64  39  40 NE6       30.10F
MISSOULA       SUNNY     61  32  34 CALM      30.13F
BUTTE          SUNNY     64  34  33 N6        30.19F
MULLAN PASS    SUNNY     59  30  33 VRB5      30.18R
* LINCOLN      N/A       57  36  46 E3         N/A
* LOOKOUT PASS N/A       61  36  39 S6G11      N/A
* POLSON       N/A       63  45  52 SE3        N/A
* RONAN APT    SUNNY     64  39  40 N/A        N/A
* SEELEY LAKE  N/A       62  36  38 SW4        N/A
* THOMP F APT  SUNNY     69  33  26 SW4        N/A
$$

MTZ008-052>055-151900-
SOUTHWEST MONTANA
CITY           SKY/WX    TMP DP  RH WIND       PRES   REMARKS
BOZEMAN        SUNNY     61  39  44 VRB3      30.18F
DILLON         SUNNY     64  34  33 CALM      30.18F
W YELLOWSTONE  SUNNY     59  32  36 CALM      30.27F
* THREE FORKS  SUNNY     61  61 100 N/A        N/A
* BOULDER HILL N/A       57  33  40 S13G18     N/A
* MONIDA PASS  N/A       65  31  28 NE6        N/A
* RAYNOLDS PAS N/A       66  45  47 SE11       N/A
* WHITEHALL    N/A       61  38  43 SE4        N/A
* WISE RIVER   N/A       54  29  38 NW4        N/A
$$

MTZ009>010-012-014-046-048-049-054-151900-
EAST SLOPES AND CENTRAL MONTANA
CITY           SKY/WX    TMP DP  RH WIND       PRES   REMARKS
CUT BANK       SUNNY     63  37  38 S8        30.08F
GREAT FALLS    SUNNY     66  43  43 S6        30.08F
HELENA         SUNNY     61  37  41 CALM      30.14F
MALMSTROM AFB  SUNNY     64  41  43 VRB1      30.10S
* CONRAD       SUNNY     64  43  47 SE7        N/A
* EAST GLACIER N/A       66  35  32 W12G20     N/A
* MONARCH      N/A       64  27  25 W3G9       N/A
* PENDROY      N/A       65  42  43 SW6        N/A
* ROGERS PASS  N/A       60  31  33 NE6G19     N/A
* SAINT MARY   N/A       67  41  39 S6G15      N/A
* SWEET GRASS  N/A       58  38  47 S17        N/A
$$

MTZ011-013-016-021-035-040-045-047-050-051-151900-
NORTH CENTRAL MONTANA
CITY           SKY/WX    TMP DP  RH WIND       PRES   REMARKS
HAVRE          SUNNY     64  43  47 VRB3      30.09F
LEWISTOWN      SUNNY     68  36  31 NE6       30.11F
* CHESTER      N/A       62  40  45 S4G11      N/A
* DENTON       N/A       67  33  28 S19G24     N/A
* GEYSER       N/A       66  31  27 NE3        N/A
* JUDITH GAP   N/A       58  34  41 S13        N/A
* LOMA         N/A       60  43  54 SE5        N/A
$$

MTZ017>020-022>027-061-062-151900-
NORTHEAST MONTANA
CITY           SKY/WX    TMP DP  RH WIND       PRES   REMARKS
GLASGOW        SUNNY     63  37  38 S10       30.15F
GLENDIVE       SUNNY     61  39  44 S6        30.21F
JORDAN         SUNNY     64  37  37 S9        30.15F
SIDNEY         SUNNY     63  39  41 S7        30.20F
WOLF POINT     SUNNY     64  36  35 W3        30.17F
* BEAVER HILL  N/A       61  31  32 S9G16      N/A
* CIRCLE       N/A       64  40  41 S7         N/A
* LINDSAY DVD  N/A       60  32  35 SE9        N/A
* NAVAJO       N/A       63  32  31 SW16G22    N/A
* SACO         N/A       62  42  48 SE6        N/A
$$

MTZ028>042-056>058-151900-
SOUTHCENTRAL AND SOUTHEAST MONTANA
CITY           SKY/WX    TMP DP  RH WIND       PRES   REMARKS
BAKER          SUNNY     63  39  41 SE9       30.22F
BILLINGS       SUNNY     61  39  44 SE3       30.16F
LIVINGSTON     SUNNY     59  37  44 W6        30.16F
MILES CITY     SUNNY     63  37  38 SE8       30.18F
* LAUREL APT   SUNNY     59  39  48 N/A        N/A
* ROUNDUP APT  SUNNY     61  39  44 S7         N/A
* ALZADA       N/A       60  41  50 E4G9       N/A
* HYSHAM       N/A       65  34  32 SE5        N/A
* LAME DEER    N/A       59  41  51 SE4G12     N/A
* REED POINT   N/A       61  38  43 N2         N/A
* ROSCOE HILL  N/A       58  32  37 N6         N/A
$$

REGIONAL REPORTS...DAKOTAS
CITY           SKY/WX    TMP DP  RH WIND       PRES   REMARKS
WILLISTON      SUNNY     63  36  37 S12       30.19F
DICKINSON      SUNNY     63  37  38 S10       30.21F
BEACH          N/A       61  36  39 SE12      30.21F
CROSBY         SUNNY     64  36  35 W14G20    30.17F
TIOGA          SUNNY     63  32  31 W8G16     30.21F
WATFORD CITY   SUNNY     63  32  31 SW8G16    30.18F
BISMARCK       SUNNY     64  32  30 W12G21    30.24F
GRAND FORKS    PTCLDY    63  37  38 W8        30.19F
FARGO          PTCLDY    63  36  37 NW7       30.23F
BUFFALO SD     SUNNY     61  37  41 S9G20     30.17F
RAPID CITY     SUNNY     59  43  56 SE13      30.27F
$$

REGIONAL REPORTS...WYOMING/IDAHO/WASHINGTON
CITY           SKY/WX    TMP DP  RH WIND       PRES   REMARKS
GILLETTE       SUNNY     64  43  47 S14       30.20F
SHERIDAN       SUNNY     66  41  40 SE7       30.16F
CODY           SUNNY     61  41  48 E6        30.19S
YELLOWSTONE LA SUNNY     54  36  51 E5        30.34F
SALMON         SUNNY     61  28  29 CALM      30.17F
MULLAN PASS    SUNNY     59  30  33 VRB5      30.18S
SAND POINT     SUNNY     64  43  47 NE9       30.05F
SPOKANE        SUNNY     64  41  43 NE8       30.03F

$$



USA.gov is the U.S. government's official web portal to all federal, state and local government web resources and services.